Lapse_Rate
7.1 7.6 7.5 7.7 7.7 7.7 7.7 7.7 7.8 7.7 7.3 7.1 6.9 6.7 6.6 6.4 6.4 6.2 6.1 5.9 5.6 5.2 5.6 5.6 5.8 6.1 6.0 6.1 5.9 6.3 6.5 6.6 6.5 6.3 6.3 6.3 6.4 6.9 6.8 7.2 7.3 7.4 6.9 6.8 6.6 6.5 6.6 7.7 7.4 7.4 7.5 7.2 7.0 6.9
7.7 7.7 7.7 7.7 7.8 7.8 7.7 7.8 7.8 7.7 7.4 7.2 7.0 6.9 6.9 6.8 6.6 6.4 6.1 6.0 5.9 5.3 5.9 5.9 6.0 6.3 6.4 6.4 6.8 6.7 6.6 6.8 6.6 6.7 6.7 6.5 6.7 7.0 7.2 7.1 7.2 7.0 7.0 7.0 6.7 7.2 7.6 7.6 7.7 7.1 7.1 6.8 6.7 6.5
7.7 7.8 7.7 7.7 7.7 7.7 7.8 7.9 7.9 7.7 7.5 7.2 7.0 7.1 7.2 6.9 6.7 6.4 6.3 6.0 5.7 5.7 5.9 6.1 7.3 6.7 6.4 6.7 6.5 6.8 6.6 6.8 6.9 6.8 6.6 6.7 6.7 7.0 7.3 7.1 7.1 6.9 6.9 6.8 6.9 7.4 7.4 7.4 7.2 7.0 6.8 6.7 6.4 6.2
7.8 7.7 7.7 7.6 7.6 7.8 7.9 7.9 8.0 7.7 7.4 7.1 7.0 7.2 7.3 7.1 6.7 6.5 6.2 6.1 5.7 6.0 5.7 6.9 6.6 6.5 6.4 6.6 6.7 6.8 6.5 6.3 6.6 7.0 6.8 6.9 6.8 6.9 7.1 7.1 7.1 7.1 7.0 7.1 7.0 7.3 7.1 7.2 7.0 6.8 6.7 6.6 6.2 6.1
7.7 7.7 7.8 7.7 7.9 8.0 8.0 7.9 7.8 7.7 7.5 7.3 7.2 7.3 7.1 6.8 6.6 6.4 6.2 6.1 6.0 5.9 5.8 6.4 6.6 6.9 6.8 6.8 6.5 6.8 6.7 6.5 6.7 6.9 7.0 7.0 6.8 6.8 7.0 7.1 7.1 7.2 7.5 7.3 7.5 7.3 7.2 7.0 6.8 6.8 6.7 6.5 6.1 6.0
7.6 7.5 7.7 7.8 7.9 7.9 7.9 7.8 7.6 7.5 7.3 7.2 7.2 7.1 6.9 6.7 6.3 6.1 6.0 6.0 6.0 6.0 5.6 5.8 6.4 6.9 6.8 6.6 6.8 6.5 6.6 6.7 6.8 6.8 6.9 6.7 6.7 6.8 6.7 7.0 7.3 7.6 7.6 7.5 7.4 7.3 7.1 6.8 6.6 6.5 6.4 6.2 6.0 5.9
7.4 7.8 8.1 8.0 8.0 8.1 7.8 7.5 7.3 7.0 7.1 7.2 7.2 6.9 6.8 6.4 6.3 6.3 6.4 6.6 6.3 6.0 5.6 5.8 6.3 6.9 6.6 6.4 6.2 6.3 6.3 6.5 6.6 6.6 6.5 6.4 6.5 6.7 6.8 7.0 7.5 7.7 7.4 7.3 7.3 7.1 6.7 6.5 6.4 6.3 6.1 6.0 5.9 5.7
7.5 7.5 7.9 8.2 8.0 7.7 7.4 7.3 7.1 7.0 7.1 7.1 6.9 6.7 6.5 6.5 6.5 6.4 6.5 6.5 6.7 6.4 6.0 5.9 6.6 6.8 6.5 6.2 6.3 6.2 6.3 6.3 6.1 6.2 6.3 6.5 6.5 6.6 6.7 7.1 7.4 7.4 7.2 7.2 7.0 6.8 6.6 6.3 6.2 6.1 6.0 5.9 5.8 5.6
7.8 7.7 7.8 8.0 8.0 7.9 7.4 7.2 7.1 7.2 7.1 7.0 6.9 6.8 6.7 6.5 6.6 7.2 6.6 6.5 6.6 6.4 6.2 6.4 6.9 6.9 6.7 6.6 6.5 6.4 6.3 6.1 6.1 6.2 6.3 6.5 6.5 6.5 6.8 7.2 7.4 7.2 7.0 6.9 6.7 6.6 6.5 6.2 6.0 6.0 5.9 5.8 5.7 5.5
7.8 7.7 7.8 7.8 7.9 8.2 7.4 7.3 7.2 7.5 7.2 7.2 7.0 6.8 6.6 7.0 6.9 6.8 7.0 6.8 6.6 6.8 6.7 7.1 6.9 6.9 6.9 6.8 6.6 6.5 6.3 6.2 6.3 6.5 6.5 6.5 6.7 6.9 6.9 7.0 6.9 7.0 6.9 6.6 6.5 6.6 6.4 6.2 6.1 5.9 5.8 5.7 5.6 5.5
7.8 8.4 8.4 7.9 8.0 7.9 7.5 7.3 7.3 7.3 7.2 7.0 7.0 7.0 7.1 7.0 7.0 7.2 7.1 7.0 7.0 6.5 6.8 6.8 6.7 6.7 6.8 6.8 6.6 6.6 6.3 6.6 6.6 6.8 6.5 6.6 7.1 7.3 6.9 6.8 6.9 6.6 6.5 6.5 6.5 6.4 6.4 6.2 6.0 5.8 5.7 5.6 5.5 5.5
8.2 8.0 7.7 7.8 7.4 7.5 7.5 7.5 7.3 7.1 7.3 7.1 7.0 7.1 7.0 7.0 7.0 6.8 6.6 6.6 6.6 6.7 6.8 6.8 6.8 6.9 6.8 6.7 6.5 6.4 6.7 6.8 6.7 6.8 6.5 6.8 7.2 6.9 6.5 6.4 6.3 6.3 6.5 6.5 6.3 6.2 6.1 6.1 6.1 6.0 5.9 5.8 5.7 5.6
7.2 7.2 7.3 7.5 7.6 7.5 7.5 7.3 7.2 7.1 7.1 7.0 6.9 7.1 7.1 7.1 6.6 6.8 6.7 6.8 7.0 6.9 7.1 6.8 6.7 6.6 6.4 6.4 6.7 6.9 6.9 6.9 7.0 6.8 6.6 6.8 6.6 6.3 6.0 6.0 6.1 6.2 6.2 6.1 6.1 6.1 6.1 6.1 6.1 6.1 6.1 5.9 5.8 5.6
7.1 7.3 7.5 7.6 7.6 7.6 7.4 7.2 7.2 7.1 7.2 7.1 6.6 6.6 6.9 7.3 7.3 7.3 7.2 7.3 7.3 7.1 6.8 6.6 6.6 6.3 6.3 6.7 7.0 7.1 7.1 7.0 6.8 6.7 6.9 6.7 6.3 6.1 6.0 5.9 5.9 6.1 6.2 6.2 6.2 6.3 6.4 6.4 6.4 6.2 6.1 6.0 5.8 5.7
7.7 7.6 7.5 7.5 7.4 7.2 7.1 7.1 7.3 7.6 7.4 7.2 7.0 7.3 7.4 7.6 7.5 7.4 7.3 7.3 7.0 6.7 6.4 6.2 6.4 6.6 6.8 7.1 7.2 7.2 7.2 7.1 7.0 7.1 7.0 6.8 6.4 6.3 6.2 6.1 6.2 6.3 6.3 6.4 6.5 6.5 6.6 6.6 6.4 6.2 6.1 6.1 6.0 6.0
7.6 7.5 7.3 7.3 7.3 7.2 7.2 7.2 7.4 7.5 7.1 7.2 7.6 7.6 7.7 7.7 7.4 7.2 7.2 6.9 6.6 6.4 6.3 6.4 6.7 6.8 7.1 7.1 7.3 7.4 7.5 7.6 7.5 7.3 7.2 6.8 6.5 6.4 6.4 6.5 6.6 6.6 6.8 6.8 6.8 6.8 6.8 6.6 6.6 6.5 6.5 6.4 6.3 6.3
7.2 7.3 7.1 7.1 7.2 7.2 7.3 7.4 7.6 7.3 7.3 7.5 7.6 7.6 7.6 7.4 6.9 7.0 6.9 6.5 6.5 6.3 6.5 6.9 7.1 7.1 7.2 7.2 7.3 7.4 7.7 7.9 7.7 7.5 7.1 6.8 6.9 6.7 6.8 6.8 6.9 7.0 7.0 7.0 6.9 6.9 6.9 6.8 6.7 6.7 6.6 6.6 6.6 6.6
7.1 7.2 7.1 7.1 7.1 7.1 6.9 7.0 7.1 7.3 7.4 7.5 7.5 7.4 7.3 7.0 6.7 6.6 6.6 6.7 6.7 6.7 6.8 7.0 7.2 7.2 7.3 7.4 7.7 8.0 8.0 7.9 7.7 7.2 6.8 6.8 6.9 6.9 6.9 7.1 7.1 7.2 7.2 7.1 7.1 7.1 7.1 7.0 6.9 6.9 6.9 6.8 6.8 6.8
7.1 7.1 7.1 7.1 7.1 7.1 7.3 7.1 7.1 7.2 7.1 7.2 7.2 7.1 6.9 6.8 6.9 6.8 6.6 6.7 6.8 6.8 6.9 7.1 7.3 7.3 7.4 7.5 7.5 7.7 7.7 7.5 7.3 7.0 6.9 6.9 7.0 7.0 7.1 7.1 7.1 7.1 7.3 7.3 7.3 7.3 7.2 7.2 7.0 7.0 7.0 7.0 7.0 7.0
7.1 7.0 7.0 7.1 7.1 7.1 7.1 7.1 7.0 6.9 6.8 6.9 7.0 6.9 6.8 6.8 6.9 6.8 6.7 6.7 6.8 6.8 6.8 7.1 7.2 7.3 7.4 7.5 7.4 7.2 7.2 7.1 7.0 6.9 6.9 6.9 6.9 7.0 7.1 7.2 7.3 7.4 7.4 7.3 7.3 7.4 7.3 7.3 7.2 7.2 7.2 7.1 7.1 7.0
7.0 7.1 7.1 6.9 6.9 6.9 6.9 6.9 6.8 6.7 6.9 6.9 6.8 6.9 7.0 7.1 6.9 6.8 6.8 6.9 6.7 6.7 6.8 6.9 7.1 7.2 7.2 7.0 6.9 7.0 7.0 7.0 7.0 7.0 6.9 7.0 7.0 7.1 7.2 7.4 7.5 7.5 7.4 7.4 7.5 7.5 7.4 7.3 7.3 7.2 7.2 7.1 7.1 7.0
6.7 6.8 6.8 6.9 6.8 6.8 6.8 6.7 6.7 6.6 6.7 6.7 6.8 6.9 7.1 7.1 7.1 7.1 7.1 7.0 7.0 6.9 6.9 6.9 7.0 7.0 6.9 6.9 6.8 6.8 6.8 6.8 6.9 6.9 6.9 6.9 7.0 7.2 7.3 7.4 7.4 7.4 7.5 7.5 7.5 7.4 7.4 7.3 7.3 7.2 7.2 7.1 7.0 7.0
6.9 6.9 6.9 6.8 6.8 6.8 6.7 6.7 6.6 6.5 6.4 6.4 6.6 6.6 6.6 6.9 7.1 7.2 7.0 7.1 7.1 7.1 7.0 7.0 7.0 6.8 6.8 6.8 6.7 6.8 6.8 6.8 6.9 6.9 7.0 7.1 7.2 7.3 7.3 7.4 7.4 7.4 7.4 7.4 7.4 7.4 7.4 7.3 7.3 7.2 7.0 7.0 7.0 6.9
7.2 7.2 7.0 7.0 7.0 6.8 6.6 6.5 6.5 6.6 6.6 6.6 6.5 6.6 6.6 6.8 6.9 6.8 6.9 7.2 7.3 7.2 7.2 7.1 7.0 6.9 6.9 6.8 6.8 6.9 6.9 6.9 7.0 7.0 7.1 7.3 7.3 7.4 7.3 7.3 7.3 7.3 7.3 7.3 7.3 7.2 7.3 7.2 7.1 7.0 7.0 7.0 6.9 6.8
7.9 7.7 7.5 7.2 6.9 6.7 6.6 6.6 6.6 6.5 6.6 6.5 6.5 6.6 6.7 6.7 6.7 6.8 6.9 7.1 7.2 7.2 7.2 7.1 6.9 6.9 7.0 7.0 7.0 7.0 7.0 7.1 7.1 7.2 7.2 7.2 7.2 7.3 7.3 7.3 7.3 7.3 7.2 7.2 7.1 7.1 7.0 6.9 6.8 6.8 6.8 6.7 6.5 6.3
8.2 7.9 7.8 7.6 7.4 7.1 6.9 6.7 6.7 6.7 6.7 6.5 6.5 6.6 6.6 6.6 6.7 6.8 7.1 7.1 7.2 7.2 7.2 7.2 7.1 7.0 7.1 7.1 7.1 7.1 7.1 7.1 7.1 7.1 7.1 7.1 7.2 7.2 7.3 7.3 7.3 7.2 7.2 7.0 6.9 6.9 6.8 6.7 6.6 6.5 6.4 6.3 6.1 5.9
8.0 7.8 7.6 7.5 7.5 7.3 7.1 6.8 6.7 6.6 6.6 6.6 6.6 6.6 6.6 6.6 6.6 6.9 7.2 7.2 7.3 7.3 7.2 7.1 7.1 7.0 7.0 7.0 7.0 7.0 6.9 7.0 7.0 7.0 7.0 7.1 7.1 7.1 7.1 7.1 7.0 6.9 6.8 6.8 6.8 6.7 6.6 6.4 6.3 6.2 6.1 5.8 5.6 5.4
7.8 7.6 7.3 7.1 7.0 6.9 6.8 6.7 6.6 6.6 6.5 6.6 6.6 6.7 6.7 6.8 6.9 7.1 7.1 7.1 7.0 7.0 7.0 7.0 7.0 6.9 6.9 6.9 6.9 6.9 6.9 6.9 6.9 6.9 6.9 6.9 6.9 6.9 6.8 6.8 6.8 6.8 6.8 6.7 6.5 6.3 6.2 6.1 5.9 5.8 5.5 5.2 5.0 4.9
7.4 7.4 7.1 6.8 6.5 6.5 6.5 6.6 6.5 6.5 6.6 6.7 6.7 6.7 6.7 6.7 6.8 6.8 6.9 6.9 6.8 6.8 6.8 6.8 6.8 6.8 6.8 6.8 6.7 6.7 6.6 6.6 6.6 6.7 6.6 6.6 6.6 6.6 6.6 6.6 6.5 6.5 6.4 6.3 6.2 6.0 5.9 5.7 5.5 5.3 5.1 5.0 4.9 4.8
7.2 7.2 7.2 7.0 6.7 6.6 6.6 6.7 6.7 6.7 6.6 6.7 6.8 6.7 6.7 6.7 6.7 6.7 6.7 6.6 6.6 6.5 6.5 6.4 6.5 6.5 6.5 6.5 6.5 6.5 6.5 6.6 6.6 6.5 6.5 6.5 6.5 6.5 6.4 6.3 6.3 6.2 6.1 5.9 5.8 5.7 5.6 5.4 5.2 5.0 4.9 4.8 4.7 4.6
7.1 7.0 7.0 7.0 7.0 7.0 7.0 7.0 6.9 6.9 6.9 6.9 6.9 6.9 6.8 6.7 6.7 6.7 6.7 6.7 6.7 6.7 6.6 6.6 6.5 6.6 6.6 6.6 6.5 6.5 6.5 6.5 6.5 6.4 6.4 6.3 6.2 6.2 6.1 6.0 5.9 5.8 5.7 5.6 5.5 5.3 5.2 5.0 4.9 4.8 4.9 4.9 4.8 4.8
7.0 7.0 6.9 6.9 6.9 6.7 6.7 6.8 6.9 7.0 7.0 7.0 7.0 7.0 6.9 6.9 6.9 6.9 6.9 6.8 6.8 6.8 6.8 6.8 6.7 6.7 6.6 6.5 6.4 6.3 6.2 6.2 6.2 6.2 6.1 6.1 6.0 5.9 5.7 5.6 5.5 5.4 5.3 5.2 5.1 5.0 4.9 4.9 5.0 5.0 5.0 5.0 5.0 5.0
7.5 7.4 7.2 7.1 7.0 6.9 6.9 6.8 6.9 7.1 7.2 7.2 7.1 7.0 7.0 7.0 7.0 7.2 7.1 7.0 6.9 6.9 6.9 6.8 6.6 6.5 6.4 6.3 6.2 6.2 6.2 6.1 6.1 6.0 5.9 5.8 5.6 5.5 5.3 5.2 5.2 5.1 5.1 4.9 4.9 4.8 4.8 4.9 4.8 4.8 4.8 4.9 5.0 5.1
Wind_Speed
23 30 30 31 31 29 27 25 23 21 22 24 23 24 28 28 25 10 2 9 7 3 6 6 6 10 5 4 4 1 2 2 3 5 5 3 3 6 4 4 6 10 7 4 6 4 6 6 4 5 2 1 2 4
22 25 29 31 30 28 26 26 26 23 22 22 22 24 27 27 24 21 3 6 5 3 3 4 9 12 13 11 7 5 2 3 3 3 3 2 3 3 5 4 4 5 5 4 7 4 1 1 2 2 3 3 4 5
21 28 29 28 26 26 24 22 21 21 21 21 22 23 20 22 23 20 3 4 3 1 5 7 12 13 11 14 8 3 4 4 3 3 3 1 3 4 5 5 3 3 2 2 1 1 2 4 2 3 2 2 5 6
21 24 23 25 25 24 21 16 13 14 16 15 19 19 21 21 23 22 5 4 3 1 2 4 2 6 7 12 14 12 7 1 3 2 0 2 3 4 3 1 3 2 7 5 3 4 2 6 5 6 4 6 8 10
23 23 23 22 22 21 19 16 12 10 11 17 22 21 17 22 21 17 6 4 4 3 2 4 10 8 4 12 13 10 12 4 1 2 3 3 1 2 0 1 2 4 4 4 3 3 2 1 7 7 7 7 10 12
19 19 20 18 18 18 16 13 10 7 13 17 17 18 19 19 17 3 1 5 13 5 2 3 3 4 3 9 12 9 4 2 2 2 2 2 2 1 2 2 1 3 3 2 2 5 3 6 6 4 6 8 9 9
15 15 16 15 16 18 14 10 9 5 13 17 16 15 15 17 7 3 4 3 19 7 2 3 3 2 1 3 2 2 2 2 2 2 2 2 2 2 1 3 3 4 4 4 8 8 5 5 4 6 9 9 9 8
12 12 14 15 17 15 12 8 6 8 18 17 13 10 10 11 5 4 6 3 12 3 3 2 2 2 1 1 2 1 2 1 3 1 1 1 1 1 3 2 5 5 8 8 2 1 2 9 10 10 10 11 11 10
8 8 11 13 14 12 9 3 3 18 21 19 17 13 4 1 3 2 8 18 16 5 3 3 2 2 4 2 2 1 2 2 1 2 2 2 2 4 4 6 9 8 5 8 6 8 9 11 11 11 10 9 10 9
9 10 7 11 13 11 6 3 15 22 23 18 4 2 2 3 9 14 3 2 2 3 2 3 2 3 1 1 1 2 0 2 2 1 1 2 2 2 2 5 8 9 10 12 9 5 7 9 10 11 9 8 8 10
8 11 13 10 5 7 3 9 22 22 10 2 3 3 2 10 2 2 2 3 4 4 3 2 3 3 1 2 2 1 1 0 2 1 2 1 2 2 3 8 8 8 11 4 1 3 7 10 11 9 7 6 6 9
5 9 10 6 6 10 10 23 21 5 3 5 3 0 1 2 1 3 3 2 4 3 2 4 3 2 0 1 2 1 2 1 2 0 1 2 2 2 5 8 8 9 8 6 5 9 7 10 9 8 7 7 7 6
9 9 6 6 9 12 22 22 16 9 5 2 1 3 3 0 2 4 5 1 2 2 3 3 3 2 2 1 2 1 2 2 1 1 2 2 2 1 4 5 7 7 6 7 7 7 8 9 8 7 7 5 6 6
10 1 11 10 16 17 17 16 11 4 2 2 3 2 1 2 2 2 2 2 1 0 2 2 3 2 0 3 1 3 0 1 1 1 2 1 3 2 3 4 8 7 6 7 6 6 7 7 5 4 5 5 7 7
8 16 20 17 16 15 14 12 10 2 2 2 3 4 4 2 2 0 1 0 0 1 1 3 3 2 2 3 1 2 2 2 3 2 1 2 4 3 4 2 5 6 5 5 4 5 5 6 6 5 2 4 5 6
24 15 5 16 14 10 8 4 2 2 2 3 4 3 1 1 1 1 1 1 1 1 0 3 3 3 1 3 3 2 4 2 1 1 1 1 4 4 3 3 4 4 4 5 5 5 5 5 6 6 5 3 3 5
10 3 8 10 7 5 2 2 2 4 3 3 3 2 1 1 1 1 1 2 1 1 2 2 3 1 2 2 1 1 1 1 2 2 2 4 4 4 3 4 4 5 6 6 4 5 5 5 7 6 6 2 4 4
4 1 3 8 6 1 2 3 3 4 5 3 2 1 1 1 2 1 2 2 2 2 1 2 2 2 2 1 0 1 2 2 3 3 4 4 5 6 4 5 4 5 7 6 6 5 5 5 6 4 7 6 7 6
3 4 8 3 5 3 3 4 3 3 3 1 1 1 1 1 1 2 2 2 2 2 3 2 3 2 1 1 1 1 3 2 2 2 3 5 5 6 7 6 5 6 6 5 6 5 4 4 5 5 5 5 5 5
10 18 13 12 4 3 4 3 2 3 2 1 1 1 1 1 1 1 3 4 2 2 4 3 1 1 1 2 1 3 3 4 5 5 3 3 3 5 5 5 5 6 6 7 6 5 4 4 3 4 4 4 5 5
8 7 13 6 4 4 3 2 3 2 2 2 0 1 1 2 2 3 3 4 3 2 2 2 2 2 3 3 3 4 5 4 3 2 4 4 3 4 4 4 4 3 3 3 4 3 3 3 4 4 4 3 3 5
2 8 3 5 3 3 3 2 2 1 2 1 1 1 2 1 2 2 1 4 2 1 1 1 1 2 4 4 4 4 4 7 6 6 7 5 4 4 3 2 2 3 3 2 2 3 3 4 4 4 5 5 5 6
4 4 3 4 5 5 2 2 3 3 2 1 1 2 2 1 1 0 2 2 1 2 1 2 3 6 7 6 7 7 5 8 6 5 5 5 5 4 4 4 3 3 2 2 0 3 3 5 5 6 6 6 7 7
6 4 4 3 3 0 2 4 2 2 2 2 2 1 1 1 1 2 2 1 1 2 1 4 4 4 4 6 5 4 3 3 5 5 3 4 5 4 4 3 3 3 3 2 1 3 4 4 7 7 7 8 7 7
6 6 5 4 3 4 5 4 4 3 2 1 2 2 1 1 2 1 2 1 1 1 1 1 2 3 3 3 3 2 4 1 4 5 3 3 4 3 3 3 4 4 3 1 2 4 5 5 5 7 7 7 9 9
5 4 3 2 2 3 1 2 1 1 1 2 1 2 2 2 2 3 2 1 1 1 1 2 3 4 3 2 3 2 1 2 3 3 2 3 2 1 2 2 1 2 4 2 3 4 5 5 7 8 7 8 10 11
4 3 2 1 1 1 3 2 2 3 2 0 2 2 2 1 3 2 1 1 1 0 1 1 0 2 4 3 3 2 3 3 4 5 4 4 4 3 1 2 3 1 3 2 2 5 7 7 7 8 8 7 7 8
2 1 2 3 3 2 3 2 1 1 1 1 2 1 3 4 2 1 0 1 1 2 3 4 4 4 4 4 4 5 5 5 6 6 5 6 5 4 4 3 5 8 5 4 4 5 6 7 8 9 9 9 8 7
2 1 2 4 3 2 1 2 3 0 1 1 1 1 1 0 0 1 1 2 3 2 3 4 3 3 5 4 3 3 4 2 2 3 3 2 0 2 3 3 4 5 5 8 11 9 10 8 9 9 11 9 8 8
2 1 3 1 3 1 2 0 1 1 1 1 2 1 1 1 1 1 1 1 1 2 2 2 3 3 3 4 4 2 1 1 0 2 3 2 2 3 3 3 4 4 5 7 9 10 13 11 11 8 9 8 7 8
1 2 3 1 2 3 1 1 0 1 1 0 1 1 0 1 2 0 0 1 1 1 3 3 3 2 4 4 3 3 2 0 0 3 3 5 5 5 4 4 4 5 5 7 7 8 8 8 8 10 10 10 9 9
2 1 3 1 2 2 3 1 0 1 1 1 1 1 1 2 2 1 0 0 1 2 1 3 3 3 2 1 2 2 3 4 4 5 9 6 6 6 5 6 7 6 7 7 7 8 9 10 9 9 10 11 10 9
2 2 2 1 2 3 2 1 2 2 1 0 1 1 2 2 4 2 1 1 2 2 3 3 3 3 5 5 5 5 6 6 9 11 12 12 11 10 8 8 8 7 9 8 8 8 10 13 10 11 10 10 9 8
Wind_Direction
201 186 176 169 163 157 159 165 171 193 200 194 199 200 198 196 192 174 182 188 202 214 249 261 239 241 225 208 233 25 309 171 159 186 203 190 175 201 182 198 179 187 198 202 201 235 263 146 130 196 113 86 153 153
170 163 156 150 152 156 163 173 184 198 197 198 201 201 194 194 191 179 205 178 166 204 269 286 260 249 254 257 248 185 228 245 163 180 219 165 186 181 191 213 194 197 204 185 199 218 72 158 65 113 150 146 180 168
165 145 141 146 153 162 171 176 185 196 202 201 192 184 204 200 192 183 150 145 176 253 276 242 248 246 229 227 202 208 219 223 213 225 174 166 240 165 181 224 188 228 170 207 191 192 207 184 130 146 169 147 154 158
119 128 139 146 149 145 141 142 147 163 159 162 170 180 195 209 208 188 187 165 169 235 268 281 265 243 216 202 199 202 246 254 118 253 332 173 221 209 206 242 218 191 154 173 244 236 238 217 197 167 136 126 126 138
123 117 120 129 133 135 136 136 146 168 175 168 169 185 209 206 197 188 183 179 184 204 282 285 309 253 239 192 189 190 211 188 174 167 211 210 172 213 174 167 226 189 173 186 220 187 123 121 167 148 149 156 150 145
104 110 117 125 138 139 140 151 157 163 188 178 178 192 202 191 174 124 193 207 200 166 272 282 306 272 295 184 189 174 160 145 162 182 209 240 234 199 199 219 200 177 175 202 160 120 74 97 114 130 134 144 149 156
107 110 109 123 135 141 140 151 165 183 174 151 157 162 159 163 147 167 189 133 181 149 228 250 264 282 0 125 53 89 114 119 126 214 212 245 173 133 273 217 162 158 136 108 118 117 89 175 162 142 134 132 132 136
112 121 112 123 133 139 146 146 163 173 147 141 134 134 146 166 181 232 243 175 153 162 208 242 264 281 60 85 104 144 143 165 191 248 197 213 95 197 237 187 132 121 121 123 78 18 116 122 126 122 122 130 131 140
115 125 116 135 142 147 147 147 223 158 139 126 115 102 77 109 215 229 171 177 171 214 200 186 189 235 151 226 113 123 188 194 144 215 196 159 190 213 213 175 167 166 166 144 96 101 118 138 138 137 138 141 137 151
143 134 140 160 158 160 169 328 152 134 126 117 95 154 209 211 154 134 123 142 139 217 208 216 153 207 200 176 125 138 162 162 191 181 104 219 245 256 216 178 164 163 138 138 120 126 138 147 156 158 171 164 160 158
136 136 141 142 136 159 244 172 134 119 91 105 174 212 259 138 91 189 119 157 174 189 185 183 170 154 290 124 125 23 130 102 197 172 214 246 256 242 143 135 139 144 147 138 117 149 164 161 160 158 155 152 151 161
128 139 160 141 161 313 185 141 134 106 149 175 178 113 93 161 171 150 192 174 205 177 158 142 151 108 226 71 120 166 158 170 209 34 95 258 270 6 142 139 136 141 139 105 114 126 136 146 156 155 153 160 165 158
200 174 159 166 291 172 142 146 147 115 119 36 169 167 188 146 65 153 171 145 122 170 165 162 120 133 139 86 74 116 124 196 148 89 236 247 328 16 135 120 115 123 119 117 116 114 126 131 140 146 148 141 141 138
132 118 264 236 162 146 142 149 156 203 196 179 176 106 95 1 58 67 43 76 93 235 167 124 95 138 33 64 96 115 228 185 96 225 234 334 351 342 119 123 130 146 152 137 134 134 128 130 123 105 132 140 141 152
220 149 123 129 134 145 159 168 207 244 176 78 38 47 52 37 47 342 276 169 358 177 198 100 77 87 59 100 44 125 157 223 215 222 347 351 349 16 62 81 120 126 126 118 125 124 130 131 128 116 114 135 132 129
119 101 109 132 161 175 209 228 143 166 56 66 49 56 10 90 73 40 18 99 52 167 122 59 105 77 88 135 154 205 161 220 153 41 50 32 53 44 62 69 91 109 109 110 111 120 121 126 130 126 108 96 135 145
85 65 123 189 189 150 166 117 61 51 77 53 63 71 99 42 62 335 351 357 340 117 85 98 72 108 115 100 104 143 90 66 102 93 64 85 91 79 72 72 76 94 98 98 102 92 103 112 117 119 115 96 111 111
66 284 150 221 206 78 61 46 80 60 61 32 71 7 39 335 321 8 342 334 25 76 78 82 121 73 80 100 176 113 104 82 69 72 68 76 90 80 76 91 74 84 94 86 94 99 108 120 118 111 122 127 112 112
96 58 20 42 156 99 66 31 48 87 71 53 13 29 24 338 345 330 347 356 58 82 95 46 66 54 68 25 14 110 139 142 137 86 63 53 76 97 96 89 84 87 92 94 101 93 90 87 113 128 132 139 126 132
61 37 17 36 72 68 67 23 33 87 93 74 50 28 331 9 345 12 32 20 42 50 54 51 62 41 354 357 343 97 111 125 123 121 96 69 66 87 92 103 102 108 100 99 99 108 107 98 93 116 125 126 135 141
31 348 3 33 40 57 81 18 60 69 120 82 357 50 22 34 36 21 18 344 60 37 83 62 73 66 57 49 78 99 117 134 152 153 146 123 90 92 90 91 99 102 106 116 117 110 103 103 129 125 124 105 106 117
333 10 51 17 68 44 69 13 69 75 74 95 80 58 50 53 42 31 2 47 60 35 22 79 99 88 79 56 54 62 92 97 89 96 95 114 115 104 91 81 95 93 94 106 123 130 116 124 125 119 117 113 111 117
22 40 46 29 69 45 281 358 65 18 84 350 43 68 45 52 74 9 74 62 78 13 27 78 82 89 98 80 77 64 60 100 102 105 101 99 98 93 89 67 55 75 87 66 144 158 143 132 131 127 124 122 120 114
34 50 47 43 46 259 355 21 12 40 29 41 68 83 44 56 52 57 86 74 352 345 74 118 124 109 90 80 77 71 51 97 103 81 62 119 110 87 75 68 54 46 10 332 56 111 129 132 133 139 136 131 129 128
67 341 69 353 334 55 31 11 352 48 63 9 77 338 287 346 89 83 152 156 90 35 0 126 103 103 114 107 101 67 25 79 124 111 31 70 114 112 93 76 61 38 1 70 96 117 117 126 127 131 133 137 135 127
71 302 80 195 311 90 198 54 8 211 103 27 264 320 7 88 84 179 158 170 158 94 51 75 123 115 92 86 131 124 59 16 106 103 73 33 40 151 149 146 122 48 18 49 114 127 126 127 125 124 120 119 126 128
64 328 337 18 313 95 46 30 63 86 65 81 311 18 56 77 244 225 154 23 114 66 8 8 189 143 141 128 95 61 49 50 75 99 93 70 54 36 61 130 128 27 351 26 139 149 142 134 127 124 120 115 120 130
166 63 109 299 51 12 128 63 79 95 233 289 83 26 170 195 221 160 90 2 47 86 72 56 54 87 106 107 116 110 88 90 94 99 101 78 56 46 43 55 66 70 64 53 83 96 112 121 124 124 122 119 113 113
37 313 94 16 10 41 57 143 200 54 22 131 146 241 207 114 232 292 351 337 323 132 117 110 79 82 82 76 64 87 121 126 98 86 100 127 26 49 22 63 73 73 77 81 74 83 91 98 101 104 103 105 99 96
295 54 95 86 113 226 233 258 119 124 58 86 108 91 54 300 255 313 312 348 150 172 165 158 146 143 145 134 135 131 61 13 344 144 154 187 189 132 118 105 100 92 95 97 98 96 90 93 96 89 97 100 100 102
355 75 72 100 226 244 235 332 175 147 115 140 55 130 68 300 296 237 302 315 273 207 170 163 160 169 161 163 166 168 217 158 213 170 114 113 121 122 120 116 116 112 108 109 109 112 110 100 104 109 107 107 107 112
359 160 139 290 278 303 11 61 353 170 352 353 171 68 32 30 275 249 278 41 168 179 189 173 174 175 174 133 106 86 96 119 119 122 124 120 119 119 117 114 109 108 108 103 104 107 108 111 113 114 115 115 115 115
0 28 41 58 11 349 341 58 18 324 17 321 271 213 216 204 243 222 337 329 238 199 157 134 118 112 101 95 97 93 82 87 92 96 96 101 108 113 111 110 110 109 106 105 104 109 109 113 112 116 116 118 118 117